Back to catalog

STARLINK-37837

AliveCommunicationsSSO
NORAD 69665·PAYLOAD·🇺🇸 United States

Launched Jun 21, 2026 from Vandenberg Space Force Base

Loading…

Next Passes (next 24 hours)

TLE

FreshSource: CelesTrak SupGP

Epoch: Sep 14, 2026, 23:31 UTC

1 69665C 26143S   26257.98034722  .00024361  00000+0  75628-3 0  2578
2 69665  97.2847 301.1676 0001332  86.8597 188.1021 15.33424082    11

Track STARLINK-37837 in real time with AllMySat

Download on the App Store